Temperature
-1 -1 -0 -0 0 0 1 1 1 1 2 2 3 3 3 4 4 4 4 4 4 5 5 5 5 5 6 6 6 6 6 6 6 7 7 7 7 7 7 7 7 7 7
-2 -2 -1 -1 -0 -0 0 0 0 1 1 2 2 2 3 3 3 3 4 4 4 4 4 4 5 5 5 5 5 6 6 6 6 6 6 7 7 7 6 6 6 7 6
-2 -2 -2 -1 -1 -1 -1 -0 -0 0 1 1 1 2 2 2 3 3 3 3 3 3 4 4 4 4 4 5 5 5 5 5 5 5 6 6 6 6 6 6 6 6 6
-3 -3 -2 -2 -2 -2 -1 -1 -1 -0 -0 0 1 1 1 2 2 2 2 2 3 3 3 3 3 4 4 4 4 4 5 4 5 5 5 5 5 5 5 5 5 5 5
-4 -3 -3 -3 -2 -2 -2 -1 -1 -1 -1 -0 -0 0 1 1 1 1 1 2 2 2 2 3 3 3 3 3 4 4 4 4 4 4 4 4 5 5 5 5 5 5 5
-4 -4 -4 -3 -3 -3 -2 -2 -2 -2 -1 -1 -1 -1 -0 0 0 0 1 1 1 2 2 2 2 2 3 3 3 3 3 4 4 4 4 4 4 4 4 4 4 4 4
-5 -4 -4 -4 -4 -3 -3 -3 -3 -2 -2 -2 -2 -1 -1 -1 -1 -0 -0 0 1 1 1 1 2 2 2 2 2 2 3 3 3 3 3 4 4 4 4 4 4 4 4
-5 -5 -5 -5 -4 -4 -4 -3 -3 -3 -3 -2 -2 -2 -2 -1 -1 -1 -1 -0 -0 0 0 1 1 1 1 1 1 2 2 2 3 3 3 3 3 3 3 3 3 3 3
-6 -6 -6 -5 -5 -4 -4 -4 -4 -4 -3 -3 -3 -3 -2 -2 -2 -2 -1 -1 -1 -0 -0 0 0 0 1 1 1 1 1 2 2 2 2 2 2 2 3 3 2 2 2
-6 -6 -6 -6 -5 -5 -5 -5 -4 -4 -4 -4 -4 -3 -3 -3 -2 -2 -2 -2 -1 -1 -1 -1 -0 -0 -0 -0 0 0 1 1 1 1 1 2 2 2 2 2 2 2 2
-7 -7 -6 -6 -6 -6 -5 -5 -5 -5 -5 -4 -4 -4 -4 -3 -3 -3 -3 -2 -2 -2 -2 -1 -1 -1 -1 -1 -1 -0 -0 0 1 1 1 1 1 1 1 1 1 1 1
-7 -7 -7 -6 -6 -6 -6 -6 -6 -6 -5 -5 -5 -5 -5 -4 -4 -4 -3 -3 -3 -3 -3 -2 -2 -2 -2 -1 -1 -1 -1 -1 -0 -0 -0 -0 0 0 1 1 1 1 1
-7 -7 -7 -7 -7 -7 -7 -6 -6 -6 -6 -6 -6 -6 -5 -5 -5 -4 -4 -4 -3 -3 -3 -3 -3 -3 -2 -2 -2 -2 -2 -1 -1 -1 -1 -1 -0 -0 -0 -0 -0 -0 -0
-8 -8 -8 -8 -7 -7 -7 -7 -7 -7 -7 -7 -7 -6 -6 -6 -5 -5 -5 -4 -4 -4 -4 -4 -4 -3 -3 -3 -3 -2 -2 -2 -2 -2 -2 -1 -1 -1 -1 -1 -1 -1 -1
-8 -8 -8 -8 -8 -8 -8 -8 -8 -8 -8 -7 -7 -7 -7 -6 -6 -6 -6 -5 -5 -5 -5 -5 -4 -4 -4 -4 -3 -3 -3 -3 -3 -3 -2 -2 -2 -2 -2 -2 -2 -2 -2
-9 -9 -9 -9 -9 -9 -9 -8 -8 -8 -8 -8 -8 -7 -7 -7 -7 -6 -6 -6 -6 -6 -6 -5 -5 -5 -5 -5 -4 -4 -4 -4 -3 -3 -3 -3 -3 -3 -2 -2 -2 -2 -2
-9 -9 -9 -9 -9 -9 -9 -9 -9 -8 -8 -8 -8 -8 -8 -8 -7 -7 -7 -7 -6 -6 -6 -6 -6 -6 -5 -5 -5 -5 -4 -4 -4 -4 -4 -3 -3 -3 -3 -3 -3 -3 -3
-10 -10 -10 -10 -10 -10 -10 -10 -10 -10 -9 -9 -8 -8 -8 -8 -8 -8 -8 -7 -7 -7 -7 -7 -6 -6 -6 -6 -5 -5 -5 -5 -5 -4 -4 -4 -4 -4 -4 -4 -4 -4 -4
-10 -10 -10 -10 -10 -10 -10 -10 -10 -10 -10 -9 -9 -9 -9 -9 -8 -8 -8 -8 -8 -8 -7 -7 -7 -7 -7 -6 -6 -6 -5 -5 -5 -5 -5 -4 -4 -4 -4 -4 -4 -4 -4
-10 -10 -11 -11 -11 -11 -11 -11 -10 -10 -10 -10 -10 -10 -9 -9 -9 -9 -9 -9 -9 -8 -8 -8 -8 -7 -7 -7 -7 -6 -6 -6 -6 -5 -5 -5 -5 -5 -5 -5 -5 -5 -5
-11 -11 -11 -11 -11 -11 -11 -11 -11 -11 -11 -11 -10 -10 -10 -10 -9 -9 -9 -9 -9 -9 -9 -8 -8 -8 -8 -7 -7 -7 -7 -6 -6 -6 -6 -6 -6 -6 -6 -6 -6 -6 -6
-11 -11 -11 -11 -11 -11 -11 -11 -11 -11 -11 -11 -11 -10 -10 -10 -10 -10 -10 -9 -9 -9 -9 -9 -9 -9 -8 -8 -8 -7 -7 -7 -7 -6 -6 -6 -6 -6 -6 -6 -6 -6 -6
-11 -11 -12 -12 -12 -12 -12 -12 -12 -11 -11 -11 -11 -11 -11 -11 -10 -10 -10 -10 -10 -10 -9 -9 -9 -9 -9 -8 -8 -8 -8 -7 -7 -7 -7 -7 -7 -7 -7 -7 -7 -7 -7
-12 -12 -12 -12 -12 -12 -12 -12 -12 -12 -12 -11 -11 -11 -11 -11 -11 -11 -11 -10 -10 -10 -10 -10 -9 -9 -9 -9 -9 -8 -8 -8 -8 -7 -7 -7 -7 -7 -7 -7 -7 -7 -8
-12 -12 -12 -12 -12 -12 -12 -12 -12 -12 -12 -12 -12 -12 -12 -11 -11 -11 -11 -11 -11 -10 -10 -10 -10 -9 -9 -9 -9 -9 -8 -8 -8 -8 -8 -8 -8 -8 -8 -8 -8 -8 -8
-13 -13 -13 -13 -13 -13 -13 -13 -13 -13 -13 -12 -12 -12 -12 -12 -12 -12 -11 -11 -11 -11 -10 -10 -10 -10 -10 -10 -9 -9 -9 -8 -8 -8 -8 -8 -8 -8 -8 -8 -8 -8 -8
Wind_Speed
6 6 6 5 4 3 2 2 2 2 2 2 2 2 2 2 2 2 3 3 4 4 4 5 5 4 3 3 3 3 3 3 4 2 1 2 2 3 3 5 6 7 7
7 6 6 6 4 3 3 3 3 2 2 2 3 3 2 2 2 3 3 3 3 5 5 5 5 4 4 4 4 4 4 3 3 4 2 2 3 3 3 3 3 4 5
7 7 6 6 5 4 4 4 3 3 3 2 2 3 3 2 3 3 4 4 4 5 5 5 5 5 5 4 4 5 4 3 3 4 3 2 2 2 2 2 2 2 4
6 6 6 6 5 5 4 4 4 3 3 3 3 3 3 3 3 4 4 4 4 5 5 5 5 5 6 5 5 5 4 4 3 4 3 3 3 2 3 3 2 2 2
6 6 6 6 5 5 5 4 4 4 4 3 3 3 3 3 3 3 4 4 4 5 5 5 5 5 6 5 5 5 5 4 4 4 4 3 3 3 4 4 3 2 2
6 7 7 6 5 5 5 4 4 4 4 3 4 4 4 4 5 6 5 4 4 4 5 5 5 5 6 7 7 7 7 7 6 5 5 5 6 5 4 4 3 3 3
7 6 7 6 6 5 5 5 4 4 4 3 4 4 4 4 6 7 7 5 4 5 5 4 5 4 4 4 6 7 7 8 9 8 7 7 7 6 6 5 5 4 4
7 7 7 6 6 6 6 5 5 4 4 3 4 4 4 5 7 7 7 5 4 5 5 5 5 5 5 5 5 5 5 6 6 6 6 7 6 6 7 6 5 3 1
6 6 7 6 6 6 6 6 5 5 4 4 4 4 4 5 8 8 6 4 4 4 5 5 5 5 7 7 5 5 5 5 5 6 6 5 6 6 5 3 4 4 3
7 7 7 7 6 6 6 6 6 5 5 5 5 4 4 5 7 8 7 3 3 4 4 4 7 7 7 7 5 5 6 5 3 3 4 4 3 4 6 6 6 6 3
7 7 7 7 6 6 6 5 5 5 5 4 5 4 4 5 7 8 8 3 4 4 4 4 4 7 7 8 7 6 8 6 4 4 3 3 3 3 4 4 4 5 5
6 7 7 7 6 6 5 5 5 5 5 4 4 5 4 4 6 7 8 8 6 5 5 5 5 7 8 8 7 7 8 6 4 3 4 4 4 4 4 3 3 3 3
7 7 7 7 6 6 5 5 5 4 4 4 4 5 5 4 5 8 9 9 9 6 5 8 8 9 8 7 8 8 6 4 4 4 5 5 4 4 2 2 1 1 0
8 8 7 7 6 5 5 5 4 4 4 4 5 5 5 5 4 4 4 5 7 6 5 6 8 9 8 7 7 6 4 4 5 5 5 4 3 3 3 3 2 2 1
7 7 7 6 6 6 5 5 5 4 5 6 5 5 5 6 7 9 7 5 4 5 5 3 3 4 4 4 4 4 4 4 5 4 4 4 4 4 3 3 3 2 3
7 7 6 5 5 5 5 6 8 8 10 10 10 9 7 10 12 12 11 11 10 9 6 4 4 4 5 5 4 4 4 5 5 5 5 5 4 4 4 3 3 3 4
7 7 6 5 5 6 5 6 7 8 10 10 10 11 10 11 11 11 10 10 9 8 5 4 5 5 5 5 4 4 5 5 4 5 5 5 4 4 4 4 4 4 4
7 7 7 5 5 5 5 6 5 6 7 6 8 10 11 11 10 10 9 7 5 4 3 4 4 5 5 4 4 5 4 4 4 4 5 5 5 4 4 4 5 5 4
7 5 5 5 5 5 5 5 5 6 6 6 5 7 10 9 9 9 7 4 4 4 4 4 4 4 4 4 4 4 4 4 5 5 5 5 5 5 5 5 5 6 4
6 9 8 5 5 5 5 5 5 5 5 5 5 5 5 5 4 4 4 4 4 4 4 4 4 4 4 4 4 3 4 4 4 5 5 5 5 5 5 5 5 5 4
5 7 9 7 5 5 5 5 5 5 5 5 5 7 8 5 4 4 4 4 4 5 5 4 4 4 4 3 3 4 4 4 4 4 4 5 5 5 4 4 4 4 4
5 5 5 5 5 5 5 5 5 5 5 6 6 7 10 6 4 4 4 5 4 4 4 4 4 4 4 3 3 3 4 4 4 4 4 4 4 4 4 4 4 4 4
5 6 6 6 5 7 7 5 5 5 6 6 6 6 5 5 5 5 5 5 4 4 4 4 4 4 4 4 4 4 4 4 4 4 4 4 4 5 5 5 5 5 5
5 6 6 6 5 5 5 5 6 6 6 6 6 6 5 5 5 5 5 5 5 5 5 5 5 5 5 5 5 6 6 6 5 5 6 5 5 5 5 5 5 6 5
5 5 6 5 6 6 6 6 6 6 6 7 6 6 6 6 5 5 5 5 5 5 5 5 5 5 6 6 6 6 6 6 5 5 5 5 5 5 5 5 5 5 5
5 5 5 5 5 5 6 6 6 6 6 6 6 6 6 6 5 5 5 4 5 5 5 5 5 6 6 6 6 6 5 5 5 5 4 5 5 4 5 4 5 5 5
Wind_Direction
334 327 330 325 316 311 302 299 292 298 298 281 285 278 279 283 267 246 239 253 238 235 234 224 225 219 211 208 205 210 216 210 233 251 249 204 186 185 195 199 208 206 208
332 328 327 323 320 320 316 309 304 289 296 286 290 273 259 269 261 242 238 243 245 240 238 231 231 227 218 213 211 216 222 215 219 230 234 217 209 189 181 187 203 204 203
331 330 327 321 320 316 310 307 305 296 290 288 284 270 260 258 260 255 243 237 244 250 241 233 233 226 227 225 219 218 222 225 225 219 225 220 216 195 180 191 192 201 210
331 329 325 322 322 316 309 303 301 295 288 276 275 275 264 266 267 264 257 246 244 254 251 239 236 230 227 228 227 222 219 217 214 213 217 207 204 197 180 190 206 216 230
330 329 325 320 322 319 315 308 303 299 296 283 276 276 266 264 271 272 265 257 250 257 256 241 234 242 248 238 237 224 216 217 212 216 210 211 206 193 201 193 208 208 239
326 327 326 322 322 318 317 316 311 306 302 297 287 286 273 271 282 284 280 261 256 255 263 256 243 240 253 254 251 243 229 218 217 222 219 214 212 211 202 201 196 200 229
325 327 326 325 321 315 313 314 309 303 304 305 299 286 283 280 288 288 282 272 260 254 255 257 255 252 256 256 257 252 245 239 228 220 220 219 213 209 198 201 209 210 228
323 325 325 323 320 318 316 312 307 300 299 294 290 283 277 283 286 287 287 271 257 255 254 252 250 246 250 254 251 247 244 243 240 231 227 229 223 207 201 206 206 204 268
320 324 323 320 318 317 316 314 308 305 300 292 288 286 281 284 288 284 282 261 260 261 259 256 251 244 252 254 246 247 252 254 260 252 250 251 244 224 206 188 186 192 238
319 321 319 315 313 312 310 309 308 307 299 301 298 293 286 286 290 289 285 260 263 270 270 261 256 253 255 253 238 231 242 251 253 263 252 245 237 215 201 198 199 205 214
318 318 315 314 313 308 309 311 312 308 305 302 298 294 287 284 291 292 292 270 261 265 269 269 262 265 265 263 258 243 242 247 237 232 237 233 219 204 203 202 204 206 210
315 313 312 313 312 312 312 312 313 311 305 302 301 300 294 288 293 293 292 286 279 264 265 267 266 268 266 265 261 254 253 252 239 231 230 229 218 213 210 204 201 212 221
318 316 314 314 313 314 312 310 312 309 304 302 300 297 299 300 300 298 293 290 287 276 267 269 272 271 266 259 257 257 253 241 234 235 235 234 222 210 197 185 159 135 60
319 317 317 317 316 317 313 308 306 303 298 295 292 291 295 299 298 297 294 290 286 283 280 274 274 274 267 257 254 254 245 235 231 236 236 231 206 199 203 202 216 196 211
314 314 317 318 317 315 314 309 303 295 292 294 291 289 292 293 295 298 296 286 276 265 274 261 254 259 251 241 237 236 231 229 232 232 230 227 214 207 211 202 202 205 220
314 315 315 316 316 315 314 315 313 306 307 303 300 297 295 293 299 300 297 293 286 280 271 254 249 253 252 250 244 238 232 227 225 222 221 222 216 211 209 203 198 207 220
309 311 314 318 317 316 316 314 315 320 317 312 308 305 301 301 301 299 298 295 289 282 266 256 250 253 255 252 252 247 243 236 225 219 217 217 213 213 209 210 209 212 222
311 309 311 311 312 313 312 311 310 313 317 319 317 313 312 309 308 306 301 302 298 289 270 263 261 260 260 257 254 253 245 233 227 221 216 212 207 208 209 210 211 214 218
314 311 310 309 310 311 312 312 311 311 310 312 317 320 318 314 312 312 310 300 292 288 283 276 272 267 263 258 257 254 242 234 228 219 216 211 205 204 210 212 216 221 222
319 317 319 317 315 314 315 315 315 313 312 314 316 316 321 319 316 312 305 297 292 288 286 283 281 277 271 261 254 253 247 237 228 220 213 211 206 205 210 213 215 219 225
318 320 320 318 315 313 314 314 314 313 313 313 312 312 316 316 312 310 303 298 292 289 288 285 282 280 275 270 258 254 256 245 229 220 217 216 209 208 208 213 219 223 227
318 318 318 314 314 315 314 313 313 312 311 311 313 314 317 318 315 311 306 303 302 299 295 292 287 282 277 270 263 257 253 246 234 222 218 216 212 209 212 215 216 218 218
317 317 316 316 316 315 317 318 317 315 315 314 314 315 315 314 314 313 311 311 310 306 303 296 289 287 288 284 272 261 250 244 234 218 212 215 217 216 213 214 212 211 217
314 313 312 314 315 315 315 317 318 317 318 316 316 316 316 315 313 313 316 318 314 309 301 296 292 292 293 293 286 276 266 258 248 231 215 213 217 217 214 211 213 213 215
313 312 313 314 315 316 316 316 317 318 318 318 316 315 315 315 314 314 316 317 315 313 309 302 299 297 297 293 288 282 277 274 265 247 223 210 210 211 209 210 213 211 212
314 314 315 316 316 316 317 317 317 318 317 317 318 319 319 319 318 318 319 319 320 318 314 308 307 305 300 295 291 289 288 286 279 260 236 216 205 208 205 209 204 209 209
Height
1491 1490 1489 1487 1487 1486 1486 1485 1486 1486 1487 1488 1489 1490 1491 1493 1495 1496 1499 1500 1502 1504 1506 1509 1511 1513 1515 1517 1519 1521 1523 1524 1524 1524 1526 1528 1529 1530 1531 1532 1533 1534 1534
1488 1487 1486 1484 1483 1482 1481 1482 1482 1482 1483 1484 1485 1486 1487 1488 1490 1492 1493 1495 1497 1499 1500 1503 1505 1507 1509 1511 1513 1515 1516 1518 1519 1519 1520 1522 1523 1524 1525 1527 1528 1528 1530
1485 1484 1482 1481 1480 1479 1479 1478 1479 1479 1479 1480 1481 1481 1482 1483 1485 1487 1488 1489 1491 1493 1495 1497 1499 1501 1503 1505 1507 1509 1510 1512 1513 1514 1514 1516 1518 1519 1520 1521 1523 1523 1524
1483 1481 1479 1478 1477 1476 1476 1475 1475 1475 1475 1476 1476 1477 1478 1479 1481 1482 1483 1485 1487 1488 1489 1491 1493 1495 1496 1498 1500 1502 1504 1506 1507 1508 1509 1510 1512 1513 1514 1516 1517 1518 1519
1480 1478 1476 1475 1474 1473 1473 1472 1472 1472 1472 1472 1473 1473 1474 1475 1476 1478 1479 1480 1482 1483 1484 1485 1487 1489 1491 1493 1494 1496 1498 1499 1501 1502 1503 1504 1505 1507 1509 1510 1511 1512 1514
1477 1475 1474 1472 1471 1471 1470 1469 1469 1468 1468 1468 1468 1469 1469 1470 1472 1473 1475 1476 1477 1478 1478 1480 1482 1484 1485 1487 1489 1490 1492 1493 1494 1496 1497 1498 1499 1501 1503 1504 1505 1506 1507
1475 1473 1472 1470 1469 1467 1467 1466 1465 1464 1464 1463 1464 1464 1465 1465 1467 1469 1470 1471 1472 1472 1473 1474 1476 1478 1480 1482 1483 1484 1486 1487 1489 1490 1491 1491 1493 1495 1497 1498 1499 1500 1501
1473 1470 1469 1468 1466 1464 1463 1462 1462 1461 1460 1460 1460 1460 1461 1461 1463 1464 1465 1466 1467 1468 1468 1470 1471 1472 1474 1476 1477 1478 1479 1480 1482 1484 1485 1487 1489 1490 1492 1493 1494 1495 1496
1470 1468 1467 1465 1463 1461 1460 1459 1458 1457 1456 1456 1456 1456 1456 1457 1458 1459 1460 1461 1461 1462 1463 1464 1465 1467 1469 1470 1471 1471 1473 1474 1476 1478 1479 1481 1483 1484 1486 1488 1488 1489 1489
1468 1466 1464 1462 1460 1458 1457 1456 1455 1454 1453 1452 1452 1452 1452 1452 1453 1454 1455 1455 1456 1456 1457 1459 1460 1461 1462 1464 1465 1465 1466 1468 1470 1471 1473 1474 1476 1478 1479 1481 1482 1483 1484
1466 1463 1461 1460 1458 1456 1454 1453 1452 1451 1450 1449 1448 1448 1448 1448 1449 1449 1450 1450 1450 1450 1451 1452 1453 1454 1456 1457 1458 1459 1460 1462 1463 1465 1466 1467 1469 1471 1472 1474 1476 1477 1478
1464 1461 1459 1457 1455 1453 1451 1450 1448 1447 1446 1445 1444 1444 1444 1444 1444 1444 1445 1445 1445 1445 1445 1446 1447 1449 1450 1451 1452 1453 1455 1457 1458 1459 1460 1461 1462 1464 1466 1467 1469 1471 1472
1460 1458 1455 1453 1452 1450 1448 1446 1445 1444 1443 1441 1441 1440 1440 1439 1439 1440 1440 1440 1440 1440 1440 1441 1442 1443 1444 1445 1446 1447 1449 1450 1451 1452 1454 1455 1457 1458 1460 1462 1463 1464 1466
1457 1454 1452 1450 1448 1447 1445 1444 1442 1441 1440 1439 1438 1437 1436 1435 1435 1435 1434 1435 1435 1435 1435 1435 1436 1437 1438 1438 1439 1441 1443 1444 1445 1446 1448 1449 1451 1452 1454 1455 1456 1458 1459
1455 1452 1450 1448 1445 1443 1442 1441 1439 1438 1437 1436 1435 1434 1432 1431 1431 1431 1431 1430 1429 1430 1430 1430 1430 1431 1431 1432 1432 1434 1436 1438 1439 1440 1442 1443 1444 1446 1447 1449 1450 1452 1453
1452 1449 1447 1445 1443 1441 1439 1437 1436 1435 1434 1432 1431 1430 1429 1428 1427 1426 1426 1425 1425 1425 1425 1424 1424 1425 1425 1426 1426 1427 1429 1431 1432 1434 1436 1437 1438 1440 1441 1442 1444 1445 1446
1450 1447 1445 1443 1440 1438 1436 1434 1432 1430 1430 1428 1427 1425 1424 1423 1422 1421 1420 1420 1419 1419 1419 1418 1418 1419 1419 1420 1421 1422 1423 1424 1426 1428 1429 1431 1432 1434 1435 1436 1437 1439 1440
1447 1444 1442 1440 1438 1436 1434 1432 1430 1427 1425 1423 1422 1421 1420 1419 1417 1416 1416 1415 1414 1414 1413 1413 1413 1414 1414 1415 1415 1416 1417 1418 1420 1421 1423 1425 1426 1428 1429 1430 1432 1433 1434
1444 1442 1439 1437 1435 1433 1431 1429 1427 1424 1422 1420 1418 1417 1416 1415 1413 1413 1412 1411 1409 1409 1409 1409 1409 1409 1409 1410 1410 1411 1412 1413 1414 1416 1417 1418 1420 1422 1423 1425 1426 1427 1428
1442 1440 1437 1435 1433 1431 1429 1426 1424 1422 1419 1417 1416 1414 1413 1412 1410 1409 1408 1407 1406 1405 1405 1405 1404 1405 1405 1405 1405 1405 1406 1407 1408 1410 1411 1413 1414 1416 1417 1419 1420 1421 1422
1440 1438 1435 1433 1431 1429 1427 1424 1422 1420 1418 1416 1414 1413 1411 1410 1407 1406 1405 1404 1403 1402 1402 1401 1400 1400 1400 1400 1400 1401 1401 1402 1403 1404 1405 1407 1409 1410 1412 1413 1415 1416 1417
1438 1436 1433 1431 1429 1427 1425 1423 1420 1418 1416 1414 1412 1410 1408 1407 1405 1404 1402 1401 1400 1399 1399 1398 1397 1396 1396 1396 1396 1396 1396 1397 1398 1399 1400 1402 1404 1405 1406 1408 1409 1410 1412
1437 1434 1432 1430 1428 1425 1423 1421 1419 1416 1414 1412 1410 1408 1406 1404 1402 1401 1400 1398 1397 1396 1395 1394 1393 1392 1392 1392 1392 1392 1392 1392 1393 1394 1395 1396 1398 1399 1401 1402 1403 1405 1406
1435 1433 1430 1428 1426 1424 1421 1419 1417 1415 1412 1410 1408 1406 1404 1402 1400 1398 1397 1395 1394 1393 1391 1390 1389 1388 1388 1387 1387 1387 1387 1388 1388 1389 1390 1391 1392 1394 1395 1397 1398 1400 1401
1434 1432 1429 1427 1424 1422 1420 1418 1415 1413 1411 1408 1406 1404 1401 1399 1397 1396 1394 1392 1391 1389 1388 1386 1385 1385 1384 1384 1383 1383 1383 1383 1383 1384 1385 1386 1387 1388 1390 1392 1393 1395 1397
1432 1430 1427 1425 1423 1420 1418 1416 1413 1411 1409 1406 1404 1402 1399 1397 1395 1393 1391 1390 1388 1386 1385 1383 1382 1382 1381 1380 1380 1379 1379 1379 1379 1379 1380 1381 1382 1384 1385 1387 1389 1391 1392